This is the latest recevied weather packets stored in our database for station/object DJ0JJ-11. If no packets are shown the sender has not sent any weather packets the latest 10 day(s).
| Time | Temp. | Humidity | Pressure | Rain* | Wind** | Luminosity | Snow |
|---|---|---|---|---|---|---|---|
| 1787917831 | 22.78° C | 88% | 1014.7 hPa | - | - | - | - |
| 1787916931 | 22.78° C | 89% | 1014.8 hPa | - | - | - | - |
| 1787916031 | 22.78° C | 91% | 1014.7 hPa | - | - | - | - |
| 1787915130 | 22.78° C | 93% | 1014.2 hPa | - | - | - | - |
| 1787914230 | 22.78° C | 99% | 1014.4 hPa | - | - | - | - |
| 1787913330 | 22.22° C | 100% | 1014.5 hPa | - | - | - | - |
| 1787912430 | 21.67° C | 100% | 1014.4 hPa | - | - | - | - |
| 1787911530 | 21.67° C | 100% | 1014.3 hPa | - | - | - | - |
| 1787910630 | 21.67° C | 100% | 1014.1 hPa | - | - | - | - |
| 1787909729 | 21.67° C | 100% | 1013.9 hPa | - | - | - | - |
| 1787908829 | 21.67° C | 100% | 1014.2 hPa | - | - | - | - |
| 1787907929 | 21.67° C | 100% | 1013.5 hPa | - | - | - | - |
| 1787907029 | 21.67° C | 100% | 1013.7 hPa | - | - | - | - |
| 1787906129 | 20.56° C | 100% | 1014.1 hPa | - | - | - | - |
| 1787905229 | 20.56° C | 100% | 1014 hPa | - | - | - | - |
| 1787904328 | 20.56° C | 100% | 1013.3 hPa | - | - | - | - |
| 1787903432 | 20.56° C | 100% | 1013 hPa | - | - | - | - |
| 1787902532 | 21.11° C | 100% | 1012.4 hPa | - | - | - | - |
| 1787901632 | 21.11° C | 100% | 1011.8 hPa | - | - | - | - |
| 1787900732 | 21.11° C | 100% | 1012 hPa | - | - | - | - |
| 1787899832 | 21.11° C | 100% | 1012.1 hPa | - | - | - | - |
| 1787898931 | 21.11° C | 100% | 1012 hPa | - | - | - | - |
| 1787898031 | 21.11° C | 100% | 1011.9 hPa | - | - | - | - |
| 1787897131 | 20.56° C | 100% | 1012.1 hPa | - | - | - | - |
| 1787896231 | 20.56° C | 100% | 1012.6 hPa | - | - | - | - |
* Rain since midnight (hover to see other rain measurements)
** Current wind speed in m/s (hover to see current wind gust speed)